Grand Forks Air Force Base, ND (58204)

7:16 PM CST on February 13, 2016 (GMT -0600)
Grand Forks Air Force Base | | Change Station
CLOSE
Current Station
Airport
Location: Grand Forks AFB,
Elevation: 912 ft
Nearby Weather Stations

Elev 912 ft 47.96 °N, 97.40 °W | Updated 18 minutes ago

Overcast
Overcast
12 °F
Feels Like -5 °F
N
17
Wind Variable Wind from South
Gusts 29 mph

Today
High -- | Low -- °F
--% Chance of Precip.
Yesterday
High -- | Low -- °F
Precip. -- in
Pressure 30.25 in
Visibility 10.0 miles
Clouds Overcast 2700 ft
Windchill -5 °F
Dew Point 1 °F
Humidity 60%
Rainfall 0.00 in
Snow Depth Not available.
7:39 AM 5:48 PM
Waxing Crescent, 36% visible
METAR KRDR 140058Z AUTO 17015G25KT 10SM OVC027 M11/M17 A3016 RMK AO2 SNB00E06 SLP244 T11091174
Pressure 30.25 in
Visibility 10.0 miles
Clouds Overcast 2700 ft
Windchill -5 °F
Dew Point 1 °F
Humidity 60%
Rainfall 0.00 in
Snow Depth Not available.
7:39 AM 5:48 PM
Waxing Crescent, 36% visible
METAR KRDR 140058Z AUTO 17015G25KT 10SM OVC027 M11/M17 A3016 RMK AO2 SNB00E06 SLP244 T11091174

10-Day Weather Forecast

Almanac

Astronomy

Feb. 13, 2016 Rise Set
Actual Time
Civil Twilight
Nautical Twilight
Astronomical Twilight
Moon
Length of Visible Light
Length of Day
Tomorrow will be .
, % of the Moon is Illuminated

Today's Extremes

State Highs State Lows

Community

WunderPhotos

Upload Photos

1,892,723 photos uploaded!

WunderBlog® & News

Nearby

Air Quality

  Air Quality AQ Index Pollutant
Not available.

Snow Depth

Station Depth Elevation

Earthquake Activity

City Distance Mag. Time & Date
Minimum magnitude displayed is 2.5.

Coastal Water Temperatures

Place Temperature

Stations

Nearby Weather Stations

Station Location Temp. Windchill Dew Point Humidity Wind Precip. Elev Updated Type
                   

Watches & Warnings

There are currently no watches in effect.